Time,TemperatureF,DewpointF,PressureIn,WindDirection,WindDirectionDegrees,WindSpeedMPH,WindSpeedGustMPH,Humidity,HourlyPrecipIn,Conditions,Clouds,dailyrainin,SoftwareType,DateUTC
2013-02-05 00:21:00,43.0,37.0,29.99,East,80,1.0,8.0,79,0.00,,,-99.99,,2013-02-05 08:21:00,
2013-02-05 00:31:00,43.0,37.0,29.99,East,80,1.0,8.0,79,0.00,,,-99.99,,2013-02-05 08:31:00,
2013-02-05 00:41:00,43.0,37.0,29.99,East,80,1.0,8.0,79,0.00,,,-99.99,,2013-02-05 08:41:00,
2013-02-05 00:52:00,43.0,37.0,29.99,East,80,1.0,8.0,79,0.00,,,-99.99,,2013-02-05 08:52:00,
2013-02-05 01:21:00,43.0,36.0,29.98,East,80,8.0,9.0,77,0.00,,,-99.99,,2013-02-05 09:21:00,
2013-02-05 01:31:00,43.0,36.0,29.98,East,80,8.0,9.0,77,0.00,,,-99.99,,2013-02-05 09:31:00,
2013-02-05 01:42:00,43.0,36.0,29.98,East,80,8.0,9.0,77,0.00,,,-99.99,,2013-02-05 09:42:00,
2013-02-05 01:51:00,43.0,36.0,29.98,East,80,8.0,9.0,77,0.00,,,-99.99,,2013-02-05 09:51:00,
2013-02-05 02:21:00,42.0,35.0,29.98,East,80,3.0,8.0,77,0.00,,,-99.99,,2013-02-05 10:21:00,
2013-02-05 02:31:00,42.0,35.0,29.98,East,80,3.0,8.0,77,0.00,,,-99.99,,2013-02-05 10:31:00,
2013-02-05 02:42:00,42.0,35.0,29.98,East,80,3.0,8.0,77,0.00,,,-99.99,,2013-02-05 10:42:00,
2013-02-05 02:52:00,42.0,35.0,29.98,East,80,3.0,8.0,77,0.00,,,-99.99,,2013-02-05 10:52:00,
2013-02-05 03:22:00,41.0,35.0,29.96,East,80,2.0,9.0,78,0.00,,,-99.99,,2013-02-05 11:22:00,
2013-02-05 03:32:00,41.0,35.0,29.96,East,80,2.0,9.0,78,0.00,,,-99.99,,2013-02-05 11:32:00,
2013-02-05 03:41:00,41.0,35.0,29.96,East,80,2.0,9.0,78,0.00,,,-99.99,,2013-02-05 11:41:00,
2013-02-05 03:52:00,41.0,35.0,29.96,East,80,2.0,9.0,78,0.00,,,-99.99,,2013-02-05 11:52:00,
2013-02-05 04:21:00,41.0,35.0,29.95,East,80,4.0,8.0,80,0.00,,,-99.99,,2013-02-05 12:21:00,
2013-02-05 04:32:00,41.0,35.0,29.95,East,80,4.0,8.0,80,0.00,,,-99.99,,2013-02-05 12:32:00,
2013-02-05 04:42:00,41.0,35.0,29.95,East,80,4.0,8.0,80,0.00,,,-99.99,,2013-02-05 12:42:00,
2013-02-05 04:52:00,41.0,35.0,29.95,East,80,4.0,8.0,80,0.00,,,-99.99,,2013-02-05 12:52:00,
2013-02-05 05:21:00,41.0,33.0,29.95,East,80,5.0,9.0,74,0.00,,,-99.99,,2013-02-05 13:21:00,
2013-02-05 05:31:00,41.0,33.0,29.95,East,80,5.0,9.0,74,0.00,,,-99.99,,2013-02-05 13:31:00,
2013-02-05 05:42:00,41.0,33.0,29.95,East,80,5.0,9.0,74,0.00,,,-99.99,,2013-02-05 13:42:00,
2013-02-05 05:51:00,41.0,33.0,29.95,East,80,5.0,9.0,74,0.00,,,-99.99,,2013-02-05 13:51:00,
2013-02-05 06:21:00,41.0,31.0,29.95,East,80,7.0,10.0,68,0.00,,,-99.99,,2013-02-05 14:21:00,
2013-02-05 06:31:00,41.0,31.0,29.95,East,80,7.0,10.0,68,0.00,,,-99.99,,2013-02-05 14:31:00,
2013-02-05 06:42:00,41.0,31.0,29.95,East,80,7.0,10.0,68,0.00,,,-99.99,,2013-02-05 14:42:00,
2013-02-05 06:52:00,41.0,31.0,29.95,East,80,7.0,10.0,68,0.00,,,-99.99,,2013-02-05 14:52:00,
2013-02-05 07:21:00,41.0,31.0,29.97,East,80,8.0,10.0,66,0.00,,,-99.99,,2013-02-05 15:21:00,
2013-02-05 07:32:00,41.0,31.0,29.97,East,80,8.0,10.0,66,0.00,,,-99.99,,2013-02-05 15:32:00,
2013-02-05 07:41:00,41.0,31.0,29.97,East,80,8.0,10.0,66,0.00,,,-99.99,,2013-02-05 15:41:00,
2013-02-05 07:52:00,41.0,31.0,29.97,East,80,8.0,10.0,66,0.00,,,-99.99,,2013-02-05 15:52:00,
2013-02-05 08:22:00,44.0,34.0,29.98,North,0,0.0,8.0,67,0.00,,,-99.99,,2013-02-05 16:22:00,
2013-02-05 08:32:00,44.0,34.0,29.98,North,0,0.0,8.0,67,0.00,,,-99.99,,2013-02-05 16:32:00,
2013-02-05 08:42:00,44.0,34.0,29.98,North,0,0.0,8.0,67,0.00,,,-99.99,,2013-02-05 16:42:00,
2013-02-05 08:51:00,44.0,34.0,29.98,North,0,0.0,8.0,67,0.00,,,-99.99,,2013-02-05 16:51:00,
2013-02-05 09:21:00,56.0,38.0,30.00,East,100,3.0,7.0,50,0.00,,,-99.99,,2013-02-05 17:21:00,
2013-02-05 09:32:00,56.0,38.0,30.00,East,100,3.0,7.0,50,0.00,,,-99.99,,2013-02-05 17:32:00,
2013-02-05 09:42:00,56.0,38.0,30.00,East,100,3.0,7.0,50,0.00,,,-99.99,,2013-02-05 17:42:00,
2013-02-05 09:52:00,56.0,38.0,30.00,East,100,3.0,7.0,50,0.00,,,-99.99,,2013-02-05 17:52:00,
2013-02-05 10:21:00,61.0,36.0,30.00,WSW,240,3.0,5.0,39,0.00,,,-99.99,,2013-02-05 18:21:00,
2013-02-05 10:32:00,61.0,36.0,30.00,WSW,240,3.0,5.0,39,0.00,,,-99.99,,2013-02-05 18:32:00,
2013-02-05 10:42:00,61.0,36.0,30.00,WSW,240,3.0,5.0,39,0.00,,,-99.99,,2013-02-05 18:42:00,
2013-02-05 10:52:00,61.0,36.0,30.00,WSW,240,3.0,5.0,39,0.00,,,-99.99,,2013-02-05 18:52:00,
2013-02-05 11:21:00,63.0,37.0,29.99,West,270,8.0,9.0,38,0.00,,,-99.99,,2013-02-05 19:21:00,
2013-02-05 11:32:00,63.0,37.0,29.99,West,270,8.0,9.0,38,0.00,,,-99.99,,2013-02-05 19:32:00,
2013-02-05 11:42:00,63.0,37.0,29.99,West,270,8.0,9.0,38,0.00,,,-99.99,,2013-02-05 19:42:00,
2013-02-05 11:52:00,63.0,37.0,29.99,West,270,8.0,9.0,38,0.00,,,-99.99,,2013-02-05 19:52:00,
2013-02-05 12:21:00,61.0,43.0,29.97,West,270,4.0,12.0,51,0.00,,,-99.99,,2013-02-05 20:21:00,
2013-02-05 12:32:00,61.0,43.0,29.97,West,270,4.0,12.0,51,0.00,,,-99.99,,2013-02-05 20:32:00,
2013-02-05 13:21:00,65.0,37.0,29.92,WSW,250,3.0,13.0,36,0.00,,,-99.99,,2013-02-05 21:21:00,
2013-02-05 13:32:00,65.0,37.0,29.92,WSW,250,3.0,13.0,36,0.00,,,-99.99,,2013-02-05 21:32:00,
2013-02-05 13:41:00,65.0,37.0,29.92,WSW,250,3.0,13.0,36,0.00,,,-99.99,,2013-02-05 21:41:00,
2013-02-05 13:51:00,65.0,37.0,29.92,WSW,250,3.0,13.0,36,0.00,,,-99.99,,2013-02-05 21:51:00,
2013-02-05 14:21:00,63.0,41.0,29.91,West,270,4.0,13.0,44,0.00,,,-99.99,,2013-02-05 22:21:00,
2013-02-05 14:32:00,63.0,41.0,29.91,West,270,4.0,13.0,44,0.00,,,-99.99,,2013-02-05 22:32:00,
2013-02-05 14:42:00,63.0,41.0,29.91,West,270,4.0,13.0,44,0.00,,,-99.99,,2013-02-05 22:42:00,
2013-02-05 14:51:00,63.0,41.0,29.91,West,270,4.0,13.0,44,0.00,,,-99.99,,2013-02-05 22:51:00,
2013-02-05 15:21:00,61.0,47.0,29.89,North,0,0.0,12.0,60,0.00,,,-99.99,,2013-02-05 23:21:00,
2013-02-05 15:32:00,61.0,47.0,29.89,North,0,0.0,12.0,60,0.00,,,-99.99,,2013-02-05 23:32:00,
2013-02-05 16:21:00,54.0,47.0,29.89,North,0,0.0,9.0,78,0.00,,,-99.99,,2013-02-06 00:21:00,
2013-02-05 16:32:00,54.0,47.0,29.89,North,0,0.0,9.0,78,0.00,,,-99.99,,2013-02-06 00:32:00,
2013-02-05 16:42:00,54.0,47.0,29.89,North,0,0.0,9.0,78,0.00,,,-99.99,,2013-02-06 00:42:00,
2013-02-05 16:52:00,54.0,47.0,29.89,North,0,0.0,9.0,78,0.00,,,-99.99,,2013-02-06 00:52:00,
2013-02-05 17:21:00,52.0,46.0,29.90,North,0,0.0,5.0,81,0.00,,,-99.99,,2013-02-06 01:21:00,
2013-02-05 17:32:00,52.0,46.0,29.90,North,0,0.0,5.0,81,0.00,,,-99.99,,2013-02-06 01:32:00,
2013-02-05 17:42:00,52.0,46.0,29.90,North,0,0.0,5.0,81,0.00,,,-99.99,,2013-02-06 01:42:00,
2013-02-05 17:52:00,52.0,46.0,29.90,North,0,0.0,5.0,81,0.00,,,-99.99,,2013-02-06 01:52:00,
2013-02-05 18:22:00,50.0,44.0,29.91,North,0,0.0,1.0,81,0.00,,,-99.99,,2013-02-06 02:22:00,
2013-02-05 18:32:00,50.0,44.0,29.91,North,0,0.0,1.0,81,0.00,,,-99.99,,2013-02-06 02:32:00,
2013-02-05 18:42:00,50.0,44.0,29.91,North,0,0.0,1.0,81,0.00,,,-99.99,,2013-02-06 02:42:00,
2013-02-05 18:52:00,50.0,44.0,29.91,North,0,0.0,1.0,81,0.00,,,-99.99,,2013-02-06 02:52:00,
2013-02-05 19:21:00,47.0,45.0,29.92,WSW,240,1.0,6.0,91,0.00,,,-99.99,,2013-02-06 03:21:00,
2013-02-05 19:32:00,47.0,45.0,29.92,WSW,240,1.0,6.0,91,0.00,,,-99.99,,2013-02-06 03:32:00,
2013-02-05 19:42:00,47.0,45.0,29.92,WSW,240,1.0,6.0,91,0.00,,,-99.99,,2013-02-06 03:42:00,
2013-02-05 19:52:00,47.0,45.0,29.92,WSW,240,1.0,6.0,91,0.00,,,-99.99,,2013-02-06 03:52:00,
2013-02-05 20:21:00,45.0,43.0,29.93,North,0,0.0,5.0,93,0.00,,,-99.99,,2013-02-06 04:21:00,
2013-02-05 20:31:00,45.0,43.0,29.93,North,0,0.0,5.0,93,0.00,,,-99.99,,2013-02-06 04:31:00,
2013-02-05 20:42:00,45.0,43.0,29.93,North,0,0.0,5.0,93,0.00,,,-99.99,,2013-02-06 04:42:00,
2013-02-05 20:51:00,45.0,43.0,29.93,North,0,0.0,5.0,93,0.00,,,-99.99,,2013-02-06 04:51:00,
2013-02-05 21:22:00,44.0,42.0,29.93,North,0,0.0,6.0,91,0.00,,,-99.99,,2013-02-06 05:22:00,
2013-02-05 21:31:00,44.0,42.0,29.93,North,0,0.0,6.0,91,0.00,,,-99.99,,2013-02-06 05:31:00,
2013-02-05 21:41:00,44.0,42.0,29.93,North,0,0.0,6.0,91,0.00,,,-99.99,,2013-02-06 05:41:00,
2013-02-05 21:52:00,44.0,42.0,29.93,North,0,0.0,6.0,91,0.00,,,-99.99,,2013-02-06 05:52:00,
2013-02-05 22:21:00,46.0,37.0,29.94,North,0,0.0,2.0,72,0.00,,,-99.99,,2013-02-06 06:21:00,
2013-02-05 22:31:00,46.0,37.0,29.94,North,0,0.0,2.0,72,0.00,,,-99.99,,2013-02-06 06:31:00,
2013-02-05 22:42:00,46.0,37.0,29.94,North,0,0.0,2.0,72,0.00,,,-99.99,,2013-02-06 06:42:00,
2013-02-05 22:51:00,46.0,37.0,29.94,North,0,0.0,2.0,72,0.00,,,-99.99,,2013-02-06 06:51:00,
2013-02-05 23:21:00,44.0,34.0,29.93,North,-999,0.0,0.0,69,0.00,,,-99.99,,2013-02-06 07:21:00,
2013-02-05 23:32:00,44.0,34.0,29.93,North,-999,0.0,0.0,69,0.00,,,-99.99,,2013-02-06 07:32:00,
2013-02-05 23:41:00,44.0,34.0,29.93,North,-999,0.0,0.0,69,0.00,,,-99.99,,2013-02-06 07:41:00,
2013-02-05 23:51:00,44.0,34.0,29.93,North,-999,0.0,0.0,69,0.00,,,-99.99,,2013-02-06 07:51:00,